User: anonymous   Login
Location: Unspecified
(0.0000°N, 0.0000°E)
Time: 12:36:10
(UTC+00:00)
Language:

Olympus - Orbit

View from above orbital plane
View from above orbital plane
View from above satellite
View from above satellite

Ground track
Ground track

The orbit data is extracted from the following two-line orbital elements,

1 20122U 89053A   18200.26994840 -.00000160 +00000-0 +00000-0 0  9993
2 20122 014.7826 359.0600 0013056 269.0303 084.5825 01.01368558091568
Epoch (UTC): 19 July 2018 06:28:43
Eccentricity: 0.0013056
inclination: 14.7826°
perigee height: 35427 km
apogee height: 35536 km
right ascension of ascending node: 359.0600°
argument of perigee: 269.0303°
revolutions per day: 1.01368558
mean anomaly at epoch: 84.5825°
orbit number at epoch: 9156

The dashed part of the orbit path shows where the satellite is in the earth's shadow,  

DLR